�N����,����,�~����,�C��,���x,�C��,����,���ϕ���,�ő�u�ԕ���,�ő厞����,���˗�,�I�_���x,�n�����x,�ő啗���N��,DTYPE
"18/08/18","00:10",0.0,17.9,83.3,1006.0,311.0,1.0,1.8,336.9,0.00,15.1,23.6,"00:02:40",1
"18/08/18","00:20",0.0,17.7,84.3,1005.5,324.4,1.2,1.6,325.6,0.00,15.1,23.4,"00:14:16",1
"18/08/18","00:30",0.0,17.2,84.9,1005.7,306.2,0.6,1.3,308.1,0.00,14.7,23.4,"00:29:52",1
"18/08/18","00:40",0.0,17.1,86.0,1005.5,292.9,0.6,2.6,324.6,0.00,14.8,23.3,"00:32:08",1
"18/08/18","00:50",0.0,17.0,84.9,1005.5,290.9,0.5,1.3,298.0,0.00,14.5,23.1,"00:45:12",1
"18/08/18","01:00",0.0,16.9,85.7,1006.0,297.3,0.5,1.6,343.0,0.00,14.5,23.1,"00:59:12",1
"18/08/18","01:10",0.0,17.1,83.1,1005.5,284.3,1.0,1.8,323.7,0.00,14.3,23.1,"01:05:20",1
"18/08/18","01:20",0.0,17.2,82.7,1006.0,296.7,0.8,1.3,324.0,0.00,14.3,23.0,"01:12:00",1
"18/08/18","01:30",0.0,17.1,81.1,1006.2,305.5,1.0,1.2,297.0,0.00,13.9,22.7,"01:20:32",1
"18/08/18","01:40",0.0,16.9,82.1,1006.2,306.7,1.0,1.8,355.2,0.00,13.9,22.9,"01:37:28",1
"18/08/18","01:50",0.0,17.0,83.4,1006.2,333.3,1.3,2.4,339.2,0.00,14.2,22.8,"01:45:36",1
"18/08/18","02:00",0.0,16.7,83.4,1005.5,329.0,1.3,1.9,342.9,0.00,13.9,22.7,"01:53:52",1
"18/08/18","02:10",0.0,16.6,83.8,1006.0,291.3,1.2,1.9,246.1,0.00,13.9,22.7,"02:09:04",1
"18/08/18","02:20",0.0,16.7,81.5,1005.7,298.3,0.8,1.7,314.5,0.00,13.6,22.7,"02:12:56",1
"18/08/18","02:30",0.0,16.3,82.3,1006.0,299.1,0.7,1.6,329.4,0.00,13.3,22.5,"02:20:48",1
"18/08/18","02:40",0.0,15.9,85.2,1006.0,273.9,0.8,1.2,247.5,0.00,13.5,22.5,"02:38:24",1
"18/08/18","02:50",0.0,16.3,84.5,1006.0,290.5,1.1,2.1,322.1,0.00,13.7,22.3,"02:49:52",1
"18/08/18","03:00",0.0,16.5,82.7,1005.7,296.3,1.0,1.9,314.5,0.00,13.6,22.4,"02:50:24",1
"18/08/18","03:10",0.0,16.5,82.7,1005.7,281.7,0.8,1.3,280.5,0.00,13.6,22.2,"03:02:24",1
"18/08/18","03:20",0.0,16.8,81.2,1006.0,300.9,1.2,1.7,312.5,0.00,13.6,22.2,"03:11:20",1
"18/08/18","03:30",0.0,16.6,82.0,1006.0,327.5,1.5,2.2,336.8,0.00,13.6,22.1,"03:28:16",1
"18/08/18","03:40",0.0,16.3,85.1,1006.0,333.1,1.5,2.0,332.6,0.00,13.8,22.0,"03:34:24",1
"18/08/18","03:50",0.0,16.7,85.8,1005.7,331.7,1.7,2.8,341.7,0.00,14.4,22.2,"03:42:00",1
"18/08/18","04:00",0.0,17.6,82.3,1005.5,333.6,2.5,4.0,310.2,0.00,14.6,22.0,"03:59:04",1
"18/08/18","04:10",0.0,18.1,77.9,1006.0,328.6,3.1,5.4,335.4,0.00,14.2,22.0,"04:04:08",1
"18/08/18","04:20",0.0,18.1,76.6,1006.0,313.9,2.0,4.1,345.6,0.00,14.0,22.2,"04:11:04",1
"18/08/18","04:30",0.0,17.8,77.1,1006.4,283.0,1.3,3.3,324.3,0.00,13.8,22.1,"04:21:04",1
"18/08/18","04:40",0.0,17.5,78.2,1006.4,275.4,1.1,1.9,317.0,0.00,13.7,21.8,"04:39:28",1
"18/08/18","04:50",0.0,17.2,78.4,1006.2,291.8,1.2,1.8,301.0,0.00,13.5,22.0,"04:41:44",1
"18/08/18","05:00",0.0,17.1,81.3,1005.7,314.1,1.6,2.5,336.0,0.00,13.9,22.0,"04:59:04",1
"18/08/18","05:10",0.0,17.3,80.7,1006.2,311.6,1.6,3.7,320.9,0.00,14.0,21.8,"05:07:12",1
"18/08/18","05:20",0.0,17.5,80.4,1006.4,320.4,1.7,3.5,334.6,0.00,14.1,21.9,"05:18:48",1
"18/08/18","05:30",0.0,17.4,80.2,1006.2,334.3,1.6,2.6,337.3,0.00,14.0,21.8,"05:28:00",1
"18/08/18","05:40",0.0,17.1,81.9,1006.4,331.8,1.6,2.4,328.2,0.00,14.0,21.6,"05:37:36",1
"18/08/18","05:50",0.0,17.0,82.3,1006.7,330.8,1.5,3.1,340.5,0.00,14.0,21.5,"05:46:16",1
"18/08/18","06:00",0.0,16.9,83.7,1006.7,325.2,1.5,2.4,322.1,0.00,14.2,21.6,"05:50:24",1
"18/08/18","06:10",0.0,17.2,83.8,1006.7,305.5,0.7,1.3,323.0,0.01,14.5,21.7,"06:00:24",1
"18/08/18","06:20",0.0,17.6,84.1,1006.7,317.7,0.8,1.7,332.1,0.02,14.9,21.5,"06:17:12",1
"18/08/18","06:30",0.0,18.0,82.8,1006.9,327.3,1.3,2.5,335.8,0.02,15.1,21.8,"06:28:16",1
"18/08/18","06:40",0.0,18.3,80.5,1007.1,330.7,1.7,3.4,339.2,0.03,14.9,21.9,"06:36:48",1
"18/08/18","06:50",0.0,18.8,78.7,1007.4,342.0,1.0,1.7,344.3,0.03,15.1,22.0,"06:40:08",1
"18/08/18","07:00",0.0,19.2,78.1,1007.1,335.8,1.0,2.2,335.9,0.05,15.3,21.7,"06:53:44",1
"18/08/18","07:10",0.0,19.7,75.2,1006.9,339.8,1.2,2.8,332.9,0.08,15.2,21.8,"07:09:12",1
"18/08/18","07:20",0.0,20.3,73.8,1007.1,337.7,0.7,2.5,328.3,0.09,15.5,22.1,"07:10:08",1
"18/08/18","07:30",0.0,20.5,73.6,1006.9,11.2,0.2,1.2,331.9,0.09,15.7,22.2,"07:26:00",1
"18/08/18","07:40",0.0,20.8,73.2,1006.7,334.4,0.5,1.3,338.3,0.11,15.9,22.3,"07:32:40",1
"18/08/18","07:50",0.0,21.2,71.8,1006.7,346.9,0.6,1.6,5.7,0.13,16.0,22.6,"07:44:00",1
"18/08/18","08:00",0.0,21.8,67.8,1006.7,326.3,0.7,2.4,336.1,0.17,15.6,22.7,"07:54:00",1
"18/08/18","08:10",0.0,22.1,66.5,1006.4,351.6,1.0,2.1,344.3,0.19,15.6,22.9,"08:01:28",1
"18/08/18","08:20",0.0,23.0,63.9,1006.2,352.0,0.5,1.7,341.2,0.21,15.8,22.7,"08:12:00",1
"18/08/18","08:30",0.0,23.1,62.6,1006.4,16.3,0.7,1.9,29.6,0.25,15.6,23.1,"08:25:04",1
"18/08/18","08:40",0.0,23.0,62.5,1006.4,34.9,0.6,1.7,356.0,0.26,15.5,23.4,"08:37:44",1
"18/08/18","08:50",0.0,23.8,61.2,1005.7,113.8,0.5,1.4,220.4,0.29,15.9,23.5,"08:43:12",1
"18/08/18","09:00",0.0,23.3,61.3,1006.0,171.8,1.1,2.1,209.3,0.26,15.5,23.8,"08:56:08",1
"18/08/18","09:10",0.0,23.6,59.8,1005.7,177.6,0.7,1.7,204.4,0.29,15.4,23.7,"09:06:00",1
"18/08/18","09:20",0.0,25.1,56.2,1005.2,156.9,0.5,1.7,42.2,0.36,15.8,24.0,"09:19:36",1
"18/08/18","09:30",0.0,24.7,57.7,1005.5,132.9,1.0,2.0,148.4,0.39,15.8,24.5,"09:28:32",1
"18/08/18","09:40",0.0,25.9,55.5,1006.0,128.5,0.7,1.7,52.4,0.42,16.4,24.7,"09:31:44",1
"18/08/18","09:50",0.0,25.7,52.1,1005.7,73.9,1.0,2.1,61.1,0.44,15.2,24.9,"09:43:04",1
"18/08/18","10:00",0.0,25.7,51.2,1006.0,118.4,1.0,2.9,140.0,0.46,14.9,25.3,"09:57:04",1
"18/08/18","10:10",0.0,26.6,53.2,1006.4,129.8,0.8,2.1,148.1,0.48,16.3,25.5,"10:06:40",1
"18/08/18","10:20",0.0,26.9,48.3,1006.4,188.2,1.5,2.8,208.1,0.49,15.1,26.0,"10:10:56",1
"18/08/18","10:30",0.0,27.0,44.9,1006.4,170.8,1.1,2.4,209.4,0.50,14.1,26.2,"10:22:56",1
"18/08/18","10:40",0.0,27.7,41.9,1006.9,155.7,1.0,2.6,165.1,0.52,13.6,26.5,"10:34:00",1
"18/08/18","10:50",0.0,27.7,43.2,1006.4,132.8,1.1,2.2,109.9,0.53,14.1,26.9,"10:48:00",1
"18/08/18","11:00",0.0,28.3,44.0,1006.4,195.7,1.1,2.7,199.3,0.54,14.9,27.1,"10:51:20",1
"18/08/18","11:10",0.0,28.7,45.4,1006.7,145.9,1.1,2.4,114.3,0.53,15.8,27.5,"11:04:32",1
"18/08/18","11:20",0.0,28.6,45.9,1006.4,350.4,1.0,2.8,336.1,0.53,15.9,27.8,"11:19:12",1
"18/08/18","11:30",0.0,29.1,46.9,1006.4,134.0,1.2,3.2,130.4,0.57,16.7,28.2,"11:29:04",1
"18/08/18","11:40",0.0,28.8,47.5,1006.4,139.5,1.3,3.3,132.6,0.58,16.6,28.5,"11:34:16",1
"18/08/18","11:50",0.0,28.8,47.6,1006.4,154.2,1.5,3.3,196.2,0.58,16.6,28.5,"11:46:48",1
"18/08/18","12:00",0.0,29.3,48.4,1006.2,151.1,1.0,3.1,147.3,0.58,17.3,29.2,"11:50:40",1
"18/08/18","12:10",0.0,29.5,45.3,1006.4,150.2,1.3,2.9,139.2,0.58,16.5,29.3,"12:03:44",1
"18/08/18","12:20",0.0,30.3,42.7,1006.4,76.5,1.0,2.6,358.2,0.58,16.3,29.5,"12:15:36",1
"18/08/18","12:30",0.0,31.5,40.4,1006.7,67.7,0.8,2.1,31.0,0.59,16.5,29.8,"12:24:08",1
"18/08/18","12:40",0.0,29.8,41.5,1006.0,66.6,1.3,2.7,49.4,0.59,15.4,30.0,"12:37:20",1
"18/08/18","12:50",0.0,30.4,40.6,1006.0,62.3,1.1,2.5,103.3,0.58,15.6,30.3,"12:46:00",1
"18/08/18","13:00",0.0,30.6,40.7,1006.2,73.1,1.3,2.7,135.2,0.58,15.8,30.5,"12:58:32",1
"18/08/18","13:10",0.0,31.2,39.6,1005.5,125.6,1.1,2.9,122.6,0.58,15.9,30.5,"13:03:44",1
"18/08/18","13:20",0.0,30.5,38.3,1005.7,167.9,2.0,3.3,180.4,0.56,14.7,30.7,"13:14:48",1
"18/08/18","13:30",0.0,31.2,37.5,1006.0,75.2,0.8,2.7,352.0,0.56,15.0,31.2,"13:27:52",1
"18/08/18","13:40",0.0,30.8,38.3,1006.2,136.6,1.5,2.9,130.0,0.56,15.0,31.3,"13:32:16",1
"18/08/18","13:50",0.0,31.3,35.9,1005.5,33.0,1.3,3.2,357.7,0.49,14.5,31.2,"13:44:08",1
"18/08/18","14:00",0.0,31.4,35.5,1005.2,39.1,1.6,2.8,5.7,0.49,14.4,31.2,"13:57:12",1
"18/08/18","14:10",0.0,31.9,35.4,1005.2,72.6,1.2,3.3,11.0,0.55,14.8,31.4,"14:00:40",1
"18/08/18","14:20",0.0,31.1,35.9,1005.2,93.5,1.0,2.2,43.3,0.42,14.3,31.2,"14:14:00",1
"18/08/18","14:30",0.0,31.8,39.3,1005.0,117.6,1.0,2.4,30.2,0.35,16.3,31.4,"14:25:28",1
"18/08/18","14:40",0.0,31.9,34.6,1005.2,87.1,1.0,2.0,129.7,0.44,14.4,31.2,"14:38:56",1
"18/08/18","14:50",0.0,31.8,35.3,1005.0,116.6,1.0,2.4,92.3,0.47,14.6,31.2,"14:43:44",1
"18/08/18","15:00",0.0,32.2,35.7,1005.2,78.9,1.0,2.0,56.5,0.40,15.2,31.2,"14:56:08",1
"18/08/18","15:10",0.0,31.4,36.0,1004.8,129.3,1.2,3.3,198.4,0.29,14.6,31.2,"15:08:40",1
"18/08/18","15:20",0.0,30.2,38.9,1003.8,130.2,1.3,2.6,129.6,0.12,14.7,31.0,"15:15:28",1
"18/08/18","15:30",0.0,31.5,38.2,1003.6,165.5,1.7,3.6,195.2,0.28,15.6,31.2,"15:23:20",1
"18/08/18","15:40",0.0,31.2,37.0,1003.6,123.1,0.8,2.4,120.7,0.27,14.8,31.0,"15:33:36",1
"18/08/18","15:50",0.0,31.2,37.8,1003.1,127.7,1.0,2.6,141.4,0.11,15.2,30.9,"15:44:08",1
"18/08/18","16:00",0.0,30.8,37.1,1003.1,144.5,1.0,3.3,129.4,0.22,14.5,30.9,"15:50:32",1
"18/08/18","16:10",0.0,31.4,36.1,1002.9,31.2,1.2,3.2,349.1,0.19,14.6,30.7,"16:07:44",1
"18/08/18","16:20",0.0,32.3,35.5,1002.6,83.9,0.7,2.0,66.1,0.27,15.2,30.7,"16:11:44",1
"18/08/18","16:30",0.0,32.1,36.2,1002.9,233.1,1.7,4.3,226.7,0.26,15.3,30.5,"16:25:12",1
"18/08/18","16:40",0.0,32.3,35.8,1002.9,248.4,1.0,2.6,201.8,0.22,15.3,30.4,"16:35:04",1
"18/08/18","16:50",0.0,32.1,35.4,1002.9,300.6,1.0,1.9,343.4,0.19,14.9,30.4,"16:48:56",1
"18/08/18","17:00",0.0,31.8,35.9,1003.1,231.9,1.5,3.3,227.7,0.17,14.9,30.1,"16:58:00",1
"18/08/18","17:10",0.0,31.5,36.6,1002.6,214.2,1.6,2.8,218.9,0.14,14.9,30.0,"17:05:12",1
"18/08/18","17:20",0.0,31.3,36.7,1002.9,208.9,1.0,2.4,222.6,0.10,14.8,30.1,"17:16:16",1
"18/08/18","17:30",0.0,31.0,37.0,1002.6,239.5,0.6,2.6,219.1,0.07,14.7,30.0,"17:25:44",1
"18/08/18","17:40",0.0,31.1,37.2,1002.4,251.8,0.6,1.9,228.9,0.06,14.8,29.8,"17:36:32",1
"18/08/18","17:50",0.0,30.7,38.4,1002.6,243.7,0.8,3.5,227.5,0.04,15.0,29.8,"17:43:04",1
"18/08/18","18:00",0.0,30.2,40.1,1002.4,260.2,0.6,2.2,212.0,0.03,15.2,29.7,"17:58:08",1
"18/08/18","18:10",0.0,29.7,43.7,1002.2,285.8,0.8,2.0,229.5,0.01,16.1,29.3,"18:01:36",1
"18/08/18","18:20",0.0,28.7,45.2,1001.9,345.0,1.5,2.4,332.1,0.00,15.7,29.1,"18:15:28",1
"18/08/18","18:30",0.0,28.0,48.2,1001.5,321.1,0.8,1.9,327.7,0.00,16.1,29.1,"18:29:12",1
"18/08/18","18:40",0.0,27.4,52.2,1001.5,335.8,1.0,1.8,328.9,0.00,16.8,29.1,"18:35:04",1
"18/08/18","18:50",0.0,26.6,54.2,1002.2,341.7,1.1,1.7,333.2,0.00,16.6,28.7,"18:45:20",1
"18/08/18","19:00",0.0,26.0,57.9,1002.4,327.5,0.7,1.6,10.6,0.00,17.1,28.6,"18:51:04",1
"18/08/18","19:10",0.0,26.0,61.8,1002.4,331.0,0.5,1.2,80.9,0.00,18.1,28.3,"19:07:04",1
"18/08/18","19:20",0.0,27.1,57.8,1002.6,57.0,0.7,3.1,48.9,0.00,18.1,28.4,"19:10:48",1
"18/08/18","19:30",0.0,26.7,56.2,1003.4,290.3,0.7,2.2,223.6,0.00,17.3,28.2,"19:23:04",1
"18/08/18","19:40",0.0,26.0,59.7,1003.6,304.6,0.8,1.6,343.3,0.00,17.6,28.0,"19:35:44",1
"18/08/18","19:50",0.0,25.2,61.1,1003.6,284.8,0.7,1.4,283.1,0.00,17.2,27.8,"19:43:44",1
"18/08/18","20:00",0.0,24.8,63.0,1003.8,318.8,1.0,1.6,346.6,0.00,17.3,27.7,"19:55:20",1
"18/08/18","20:10",0.0,24.4,64.4,1004.1,327.3,1.3,1.8,309.5,0.00,17.3,27.7,"20:00:24",1
"18/08/18","20:20",0.0,24.0,64.7,1004.5,320.2,1.1,1.4,311.9,0.00,17.0,27.5,"20:16:00",1
"18/08/18","20:30",0.0,23.7,64.7,1004.5,289.3,1.0,1.3,300.1,0.00,16.7,27.4,"20:20:24",1
"18/08/18","20:40",0.0,23.4,66.5,1004.8,307.4,1.1,1.9,332.8,0.00,16.8,27.2,"20:33:04",1
"18/08/18","20:50",0.0,22.9,68.8,1004.5,306.9,1.0,1.6,325.8,0.00,16.9,27.0,"20:46:08",1
"18/08/18","21:00",0.0,22.7,71.9,1005.2,303.4,1.0,1.6,330.4,0.00,17.4,27.1,"20:54:40",1
"18/08/18","21:10",0.0,22.7,71.4,1005.2,308.5,1.0,1.6,326.5,0.00,17.3,26.8,"21:00:48",1
"18/08/18","21:20",0.0,22.6,73.5,1005.2,322.9,1.2,1.8,345.9,0.00,17.7,26.5,"21:12:56",1
"18/08/18","21:30",0.0,22.3,74.6,1005.2,287.7,1.0,1.3,275.2,0.00,17.6,26.6,"21:24:32",1
"18/08/18","21:40",0.0,22.5,72.5,1005.2,298.7,1.1,1.6,314.9,0.00,17.4,26.5,"21:31:52",1
"18/08/18","21:50",0.0,22.2,73.7,1005.5,302.5,1.1,1.4,320.6,0.00,17.3,26.4,"21:42:08",1
"18/08/18","22:00",0.0,22.0,74.6,1005.7,294.9,1.0,1.8,316.6,0.00,17.3,26.2,"21:51:52",1
"18/08/18","22:10",0.0,21.9,75.7,1005.5,288.7,1.0,1.3,317.8,0.00,17.5,26.1,"22:08:40",1
"18/08/18","22:20",0.0,21.8,76.0,1005.5,306.4,1.2,1.9,309.7,0.00,17.4,26.1,"22:15:28",1
"18/08/18","22:30",0.0,21.6,77.7,1005.7,318.5,1.1,1.8,324.8,0.00,17.6,26.0,"22:27:04",1
"18/08/18","22:40",0.0,21.1,79.2,1005.7,304.1,0.8,1.6,329.2,0.00,17.4,26.0,"22:30:24",1
"18/08/18","22:50",0.0,21.1,80.6,1006.0,315.6,1.0,1.4,317.9,0.00,17.7,25.9,"22:46:32",1
"18/08/18","23:00",0.0,21.1,79.8,1006.0,310.6,1.0,1.6,332.0,0.00,17.5,25.7,"22:57:12",1
"18/08/18","23:10",0.0,20.9,82.4,1006.0,310.0,1.1,1.6,308.0,0.00,17.8,25.6,"23:04:16",1
"18/08/18","23:20",0.0,21.0,82.5,1006.4,309.8,1.0,1.6,335.2,0.00,17.9,25.5,"23:12:08",1
"18/08/18","23:30",0.0,21.0,81.5,1006.4,306.3,1.1,1.6,329.0,0.00,17.8,25.4,"23:20:40",1
"18/08/18","23:40",0.0,21.1,82.3,1006.4,315.0,1.3,1.8,332.9,0.00,18.0,25.4,"23:32:24",1
"18/08/18","23:50",0.0,21.2,82.1,1006.4,313.9,1.3,2.1,314.3,0.00,18.1,25.3,"23:40:32",1
"18/08/18","24:00",0.0,21.3,81.9,1006.2,306.8,1.3,1.9,312.7,0.00,18.1,25.2,"23:54:08",1
